Dewpoint
34 30 29 30 32 31 31 29 24 23 24 34 38 45 48 49 49 51 54 54 52 50 49 49 48 48 47 46 44 43 43 43 42 40 39 41 41 43 44 41 41 42 43 44
30 30 32 33 33 32 31 27 24 24 24 36 39 39 47 47 48 49 49 49 46 46 47 46 45 45 45 44 44 43 42 42 42 40 39 40 42 44 43 40 41 43 43 43
27 28 32 30 28 30 28 25 24 23 24 29 34 37 39 44 48 46 45 44 44 45 45 44 43 43 43 42 42 41 41 41 41 42 43 42 41 43 40 40 41 42 44 44
29 29 27 27 28 27 25 26 25 24 24 21 25 25 38 40 42 43 43 43 43 44 44 43 42 42 42 41 40 39 41 41 41 42 41 41 41 39 40 41 42 44 45 43
29 30 30 29 28 27 26 28 25 26 23 25 28 31 38 39 38 39 42 44 45 44 45 42 43 43 41 41 40 40 43 43 43 43 41 40 40 40 41 43 43 44 43 41
33 33 31 30 30 29 28 26 29 29 25 21 26 31 35 39 38 39 40 41 42 43 42 43 45 43 41 41 39 43 43 42 42 41 41 42 43 43 44 41 40 40 39 37
28 29 29 31 29 29 29 29 26 23 24 19 34 32 32 40 39 40 40 40 40 40 41 42 43 43 42 40 39 43 43 41 41 43 44 44 41 39 37 37 35 35 34 32
28 27 32 28 28 26 31 31 28 22 26 27 34 31 34 43 43 43 40 39 39 40 40 41 41 42 42 40 39 43 42 42 42 40 38 38 35 33 33 32 31 31 31 30
31 31 33 32 32 30 31 30 31 31 31 29 31 35 37 44 44 42 38 38 38 39 40 40 39 39 40 41 41 43 42 39 37 34 33 31 29 29 28 28 29 29 29 27
33 29 34 33 33 36 31 34 30 31 26 26 28 33 31 41 43 41 37 37 37 38 39 39 38 38 38 39 39 38 37 34 32 30 28 28 28 28 27 26 26 26 27 27
35 31 32 34 35 32 35 34 34 32 30 25 23 27 36 39 43 42 37 37 37 38 38 38 37 36 36 35 34 32 31 30 29 28 27 27 27 26 26 25 26 25 26 27
41 32 31 35 38 40 37 35 34 29 29 28 26 28 34 38 43 44 38 36 37 38 38 37 36 35 33 31 29 29 29 27 27 27 26 25 25 25 24 24 24 26 25 26
37 34 29 29 34 36 36 38 36 34 32 30 26 29 36 41 41 44 37 36 37 37 36 36 36 34 32 29 28 26 26 26 26 25 24 23 23 23 22 22 23 25 24 22
39 35 30 28 29 34 33 36 36 33 27 29 30 31 31 40 40 39 37 36 37 36 36 35 35 34 32 29 27 26 26 26 25 24 22 21 21 22 21 22 23 23 22 21
34 27 34 34 35 35 35 36 36 34 33 30 31 31 32 35 40 40 37 37 36 35 34 34 36 33 30 28 26 25 26 25 24 23 21 21 22 21 21 22 21 21 21 21
38 31 33 28 34 33 33 34 34 34 34 33 33 33 34 35 39 38 37 36 35 35 34 36 35 31 26 25 25 24 25 25 24 22 21 21 21 20 22 20 20 20 20 20
37 35 31 29 33 29 28 29 31 30 33 33 31 32 33 36 38 38 37 36 35 34 34 34 32 29 24 23 24 23 25 25 23 21 20 21 20 19 21 18 18 19 20 20
37 35 32 31 31 23 30 31 32 31 32 32 32 32 32 34 36 36 36 35 34 34 33 32 31 27 23 23 24 25 26 24 22 20 20 19 18 19 19 17 18 19 19 19
39 36 33 31 26 29 28 28 30 29 28 30 31 32 32 31 31 31 32 34 34 33 33 32 30 26 22 21 23 25 24 22 20 18 18 18 19 19 18 17 18 19 19 19
36 36 34 30 25 24 26 30 34 31 26 32 33 32 31 30 29 32 32 33 33 33 32 30 26 21 20 20 23 22 20 19 17 19 19 18 19 19 17 18 19 19 19 18
31 30 28 29 31 32 32 32 32 24 26 34 34 33 32 30 34 32 34 33 33 33 31 27 22 19 17 19 21 18 17 16 17 20 19 19 18 17 17 18 18 19 18 18
33 31 32 32 30 28 34 34 29 31 34 35 34 33 33 33 34 33 33 32 32 28 27 22 19 17 16 17 17 15 15 16 17 17 17 17 17 16 16 18 18 18 18 18
31 33 31 31 31 34 36 34 36 35 35 36 35 34 34 34 34 34 32 31 28 25 24 19 17 15 14 16 15 14 14 16 16 14 14 15 16 17 14 16 17 18 18 18
34 36 33 32 34 36 37 37 37 39 38 37 37 35 35 34 34 34 32 31 25 17 16 14 13 13 13 15 15 14 15 16 15 13 12 15 15 18 15 15 17 18 18 17
33 36 33 31 34 35 36 37 37 36 39 39 38 36 35 35 35 34 33 31 27 19 10 11 12 12 13 15 16 16 16 16 13 11 12 14 16 14 15 14 17 19 19 18
35 33 31 31 35 35 35 35 38 39 39 40 38 37 36 36 35 35 34 33 29 22 10 9 12 14 15 16 16 17 17 14 12 9 12 16 17 16 15 15 16 18 18 17
Lifted_Index
6 6 5 4 4 4 3 3 3 3 3 3 2 0 -1 -2 -3 -3 -2 -2 -2 -1 0 1 2 3 4 5 6 6 7 7 8 8 8 9 9 9 8 9 10 10 11 11
5 5 5 4 4 4 3 3 3 3 3 3 2 0 -1 -2 -3 -2 -2 -1 -1 0 1 2 3 4 5 6 6 6 6 7 7 8 8 9 9 9 9 9 10 10 10 10
5 5 5 4 4 4 3 3 3 3 3 3 2 1 -0 -1 -2 -1 -1 -0 1 2 2 3 4 5 5 5 6 6 6 6 7 7 8 9 9 9 8 9 9 10 10 10
5 6 5 5 4 4 4 4 3 3 3 3 3 2 1 -0 -1 -1 0 1 2 3 3 3 3 4 4 5 5 6 6 6 7 7 8 8 8 8 8 8 8 9 9 9
5 5 5 5 4 4 4 4 4 3 3 3 3 3 2 1 -0 -0 0 2 3 3 3 2 3 3 4 5 5 6 6 7 7 8 8 8 8 8 8 8 8 9 9 10
5 5 4 4 4 4 4 3 3 3 3 3 3 3 2 1 0 -0 0 1 2 2 2 2 2 3 4 5 5 6 7 7 8 8 8 8 8 8 8 8 9 9 10 10
4 4 4 4 4 4 3 3 3 2 2 2 2 2 2 1 0 0 0 1 2 2 2 2 3 3 4 5 5 6 7 7 7 8 7 7 7 7 8 8 9 10 11 12
3 3 3 3 4 4 3 3 2 1 1 1 1 1 1 1 0 0 1 1 1 2 2 2 3 3 4 5 5 6 7 7 7 7 7 7 7 7 8 9 10 12 14 15
3 2 3 3 3 3 3 2 2 1 1 1 1 1 1 0 0 0 0 1 1 1 2 2 3 3 4 6 6 7 7 7 7 7 7 8 8 8 9 11 13 15 18 19
2 2 2 2 2 2 2 2 2 1 1 1 1 1 1 0 0 0 0 1 1 1 2 3 3 4 5 6 7 7 7 7 7 7 8 8 9 11 12 15 17 19 20 20
2 2 2 2 2 2 2 2 2 2 1 1 1 1 1 0 0 0 0 1 1 1 2 3 3 4 5 7 8 8 8 8 8 8 9 11 12 15 17 18 19 20 20 21
1 2 2 2 1 1 1 1 1 2 2 1 1 1 1 1 0 0 0 0 1 1 2 3 3 4 6 7 8 9 10 10 10 11 13 15 17 18 19 20 20 20 20 21
1 1 1 2 2 1 1 1 1 1 1 1 1 1 1 1 0 0 0 0 0 1 2 2 3 4 6 8 9 10 11 12 13 14 16 17 19 19 19 20 20 20 21 21
1 1 2 2 2 2 2 2 1 1 1 1 1 1 1 1 1 0 0 0 0 1 1 2 3 4 6 8 9 10 12 13 15 16 17 18 19 19 19 20 20 20 21 21
2 2 2 2 2 2 2 2 2 2 2 2 2 2 2 1 1 1 1 1 1 1 1 2 2 3 5 7 9 10 11 13 15 17 18 18 19 19 19 19 20 20 21 21
2 3 3 3 3 3 3 3 2 3 3 3 3 3 3 2 2 1 1 1 1 1 1 2 2 3 5 7 8 9 10 12 15 17 18 18 19 19 19 19 19 20 20 21
3 3 3 3 3 3 3 3 3 3 4 4 4 4 3 3 3 2 2 2 2 2 2 2 3 4 6 8 9 9 10 13 15 17 18 18 19 19 19 19 19 20 20 21
3 3 3 4 3 3 3 3 4 4 4 5 5 4 4 4 3 3 3 3 2 2 3 3 5 6 7 8 9 10 11 13 15 17 18 18 19 19 19 19 20 20 20 21
3 3 3 4 3 3 3 4 4 5 4 5 5 4 4 4 4 3 3 3 3 3 4 5 6 7 8 9 9 10 11 13 16 17 18 19 19 19 19 19 20 20 21 21
3 3 3 3 3 4 4 4 4 5 4 4 5 4 4 3 3 3 3 3 4 5 6 6 7 7 8 9 10 10 11 14 16 18 18 19 19 19 20 20 20 21 21 21
3 3 3 3 4 4 4 4 4 5 5 5 4 4 4 3 3 4 4 4 5 6 7 7 7 7 8 9 10 10 12 15 17 18 19 19 20 20 20 20 21 21 21 21
4 4 3 4 4 4 5 5 5 5 5 5 5 4 4 3 4 4 4 5 6 6 6 7 7 7 8 9 10 11 13 16 18 19 19 19 20 20 21 21 21 21 21 21
4 4 4 4 4 4 5 5 5 5 5 5 4 4 4 4 4 4 4 5 5 5 5 6 7 7 8 9 10 12 14 17 18 19 19 19 20 20 20 21 21 21 21 21
5 5 4 5 5 4 4 4 5 4 4 4 4 4 4 4 3 3 4 4 4 4 4 6 7 7 8 9 11 13 16 17 18 18 19 19 19 20 20 20 21 21 21 21
5 5 5 5 4 4 4 4 4 4 4 3 3 3 3 3 3 3 3 3 3 3 4 5 6 7 8 9 12 14 16 18 18 18 18 19 19 19 20 20 21 21 22 22
5 5 4 4 4 4 4 3 3 3 3 3 3 3 3 3 2 2 2 2 3 3 4 5 6 7 8 9 12 14 16 18 18 18 18 19 19 19 19 20 21 22 23 23